Current Weather Conditions: station 62160

sailwx.info

Wind from 190

Wave height 0.6 meters (1 feet), 5 second period

Air temperature 15.0° C
Dewpoint 10.6° C

Last reported at 2019-Jun-18 06:00 UTC.
Time now 2019-Jun-18 07:40 UTC

Location: N 56°36' E 002°18'.
View on Google Maps.

See reports from other nearby stations

  
Tides and Currents Weather Stations Pressure Air Temp Water Temp Dewpoint Dewpoint Depression Visibility Wind Speed Wind Dir Waves Ship Positions
date/time (UTC)wind fromknots sea level pressurealtimeterstation pressurevisibilityair tempwater tempwave heightnotes
2019-Jun-18 06:00 190 15.0 0.6
2019-Jun-18 05:00 200 14.9 0.7
2019-Jun-18 04:00 200 13.5 0.7
2019-Jun-18 03:00 200 13.3 0.8
2019-Jun-18 02:00 180 13.8 0.8
2019-Jun-18 01:00 180 13.9 0.9
2019-Jun-18 00:00 190 14.6 0.9
2019-Jun-17 23:00 180 13.2 1.0
2019-Jun-17 22:00 170 13.1 1.1
2019-Jun-17 21:00 170 13.5
2019-Jun-17 20:00 170 13.5
2019-Jun-17 19:00 170 13.2 1.1
2019-Jun-17 18:00 170 13.5 1.2
2019-Jun-17 17:00 180 14.2 1.3
2019-Jun-17 16:00 190 14.3 1.5
2019-Jun-17 15:00 180 14.6 1.3
2019-Jun-17 14:00 190 14.6 1.3
2019-Jun-17 13:00 180 14.4 1.3
2019-Jun-17 12:00 190 14.0 1.2
2019-Jun-17 11:00 190 14.2 1.2
2019-Jun-17 10:00 180 14.1
2019-Jun-17 09:00 180 13.5
2019-Jun-17 08:00 180 13.6 1.0
2019-Jun-17 07:00 190 14.1
2019-Jun-17 06:00 190 13.5
2019-Jun-17 05:00 180 13.4 0.8
2019-Jun-17 04:00 180 13.7 0.8
2019-Jun-17 03:00 170 13.3 0.8
2019-Jun-17 02:00 160 12.9 0.8
2019-Jun-17 01:00 170 12.8 0.8
2019-Jun-17 00:00 160 12.8 0.8
2019-Jun-16 23:00 140 12.6 0.8
2019-Jun-16 22:00 150 12.6 0.8
2019-Jun-16 21:00 150 12.7 0.8
2019-Jun-16 20:00 140 12.4
2019-Jun-16 19:00 140 12.5
2019-Jun-16 18:00 150 12.7
2019-Jun-16 17:00 160 13.4 0.7
2019-Jun-16 16:00 160 13.6 0.6
2019-Jun-16 15:00 180 14.0 0.6
2019-Jun-16 14:00 14.2 0.7
2019-Jun-16 13:00 170 13.9 0.6
2019-Jun-16 12:00 170 14.7 0.6
2019-Jun-16 11:00 170 15.1 0.6
2019-Jun-16 10:00 190 15.3 0.6
2019-Jun-16 09:00 210 14.7 0.7
2019-Jun-16 08:00 210 14.9 0.7
2019-Jun-16 07:00 210 13.8 0.7